{"data":{"norad_id":45149,"intl_designator":"2020-008U","name":"ONEWEB-0043","alt_names":[],"object_type":"PAYLOAD","status":"ACTIVE","operator":null,"country":"UK","launch_date":"2020-02-06","launch_site_code":"TYMSC","launch_vehicle":null,"mission":null,"orbit_class":"UNKNOWN","rcs_meters":null,"size_class":null,"mass_kg":null,"dimensions":null,"purposes":["comms"],"wikipedia_slug":null,"has_3d_model":false,"image_url":null,"decayed_at":null,"tle_current":{"epoch":"2026-09-20T02:46:51.612096Z","epoch_age_seconds":47530,"freshness":"FRESH","line1":"1 45149U 20008U   26263.11587514 -.00000636  00000+0 -18591-2 0  9996","line2":"2 45149  87.8912  17.3727 0002252 103.1848 256.9531 13.10371336320614","mean_motion":13.10371336,"eccentricity":0.0002252,"inclination_deg":87.8912,"raan_deg":17.3727,"arg_perigee_deg":103.1848,"mean_anomaly_deg":256.9531,"bstar":-0.0018591,"rev_number":32061,"period_min":109.89251370499,"perigee_km":1220.0113886396,"apogee_km":1223.4343655282,"semimajor_km":7599.8598770839,"source":"CELESTRAK","updated_at":"2026-09-20T09:00:44.548401Z"}}}